Content
SEND FEEDBACK

Daily
Averages
Monthly
Summary
United Kingdom

LEEMING, ENGLAND


Home > Europe > United Kingdom > England
Elevation: 131 feet     Latitude: 54 18N     Longitude: 001 31W

WEATHER
 
SELECT A DAY
Number of Records: 63,331;   Date Range: 8/10/96 - 7/8/14
 
SHARE

PRINT THIS DATA

[ ← Previous Day ]
WEATHER ALMANAC - OCTOBER 22, 2013
[ Next Day → ]
[ °C ]   °F
Weather ElementAverageHighLow
Temperature59.5 °F62.6 °F (1:50 pm)57 °F (9:50 pm)
Dewpoint56.7 °F59 °F (1:50 pm)55 °F (6:50 pm)
Humidity90.1 %100 % (9:50 am)77 % (4:50 pm)
Barometer29.27 in29.39 in (12:50 am)29.18 in (11:50 pm)
Wind Speed13.3 mph17.3 mph (12:50 am)
Weather ElementAverage
Visibility7.1 mi
Wind DirectionSSE (164.9 °)

Weather ElementTotal
Precipitation---
Heating Degree Days5.2 (Base 65)
Growing Degree Days9.8 (Base 50)
Averaged from 35 records on October 22, 2013
WEATHER CONDITIONS BREAKOUT
WIND DIRECTION BREAKOUT
WEATHER BY HOUR - OCTOBER 22, 2013
[ °C ]   °F
Local TimeTemperatureDewpointHumidityBarometerVisibilityWind DirectionWind SpeedGust SpeedPrecipitationEventsConditions
12:50 AM59.0 °F57.2 °F94 %29.39 in6.2 miSSE (160°)17.3 mphRainLight Rain
1:50 AM59.0 °F57.2 °F94 %29.39 in4.3 miSSE (160°)15.0 mphRainRain
2:50 AM59.0 °F57.2 °F94 %29.36 in6.2 miSSE (160°)16.1 mphRainLight Rain
3:50 AM60.0 °F57.0 °F85 %29.36 in12.0 miSouth (170°)15.0 mphRainLight Rain Showers
3:50 AM59.0 °F57.2 °F94 %29.36 in6.2 miSouth (170°)15.0 mphRainLight Rain Showers
4:50 AM59.0 °F55.4 °F88 %29.33 in6.2 miSSE (160°)12.7 mphRainLight Rain Showers
5:50 AM59.0 °F57.2 °F94 %29.33 in6.2 miSouth (170°)16.1 mphRainLight Rain
6:50 AM58.0 °F56.0 °F92 %29.32 in12.0 miSSE (160°)13.8 mphRainLight Rain
6:50 AM59.0 °F57.2 °F94 %29.30 in6.2 miSSE (160°)13.8 mphRainLight Rain
7:50 AM59.0 °F57.2 °F94 %29.30 in6.2 miSouth (170°)12.7 mphRainLight Rain
8:50 AM59.0 °F57.2 °F94 %29.30 in5.6 miSSE (160°)13.8 mphRainLight Rain
9:50 AM58.0 °F56.0 °F92 %29.30 in11.0 miSSE (160°)13.8 mphRainLight Rain
9:50 AM57.2 °F57.2 °F100 %29.30 in6.2 miSSE (160°)13.8 mphRainLight Rain
10:50 AM59.0 °F57.2 °F94 %29.27 in6.2 miSouth (170°)13.8 mphOvercast
11:18 AM59.0 °F57.2 °F94 %29.27 in4.3 miSSE (160°)15.0 mphRainLight Rain
11:50 AM59.0 °F57.2 °F94 %29.27 in6.2 miSSE (160°)15.0 mphRainLight Rain
12:20 PM59.0 °F57.2 °F94 %29.27 in6.2 miSouth (170°)16.1 mphScattered Clouds
12:50 PM60.8 °F57.2 °F88 %29.24 in6.2 miSouth (170°)15.0 mphRainLight Rain
12:50 PM60.0 °F58.0 °F89 %29.26 in9.0 miSouth (170°)15.0 mphRainLight Rain
1:29 PM60.8 °F57.2 °F88 %29.24 in6.2 miSouth (170°)16.1 mphRainLight Rain
1:50 PM62.6 °F59.0 °F88 %29.24 in6.2 miSouth (170°)13.8 mphMostly Cloudy
2:28 PM62.6 °F59.0 °F88 %29.24 in6.2 miSouth (180°)16.1 mphMostly Cloudy
2:50 PM62.6 °F59.0 °F88 %29.24 in6.2 miSouth (180°)12.7 mphMostly Cloudy
3:50 PM62.0 °F57.0 °F79 %29.24 in14.0 miSouth (180°)12.7 mphRainLight Rain
3:50 PM62.6 °F57.2 °F82 %29.24 in6.2 miSouth (180°)12.7 mphScattered Clouds
4:50 PM62.6 °F55.4 °F77 %29.21 in6.2 miSouth (170°)12.7 mphPartly Cloudy
5:50 PM60.8 °F55.4 °F82 %29.21 in6.2 miSouth (170°)8.1 mphScattered Clouds
6:50 PM60.0 °F55.0 °F80 %29.24 in13.0 miSSE (150°)8.1 mphRainLight Rain
6:50 PM59.0 °F55.4 °F88 %29.24 in6.2 miSSE (150°)8.1 mphRainLight Rain
7:50 PM59.0 °F55.4 °F88 %29.24 in6.2 miSSE (150°)10.4 mphMostly Cloudy
8:50 PM57.2 °F55.4 °F94 %29.21 in6.2 miSSE (160°)12.7 mphPartly Cloudy
9:50 PM57.0 °F55.0 °F89 %29.23 in7.0 miSSE (160°)10.4 mphScattered Clouds
9:50 PM57.2 °F55.4 °F94 %29.21 in6.2 miSSE (160°)10.4 mphPartly Cloudy
10:50 PM57.2 °F55.4 °F94 %29.21 in6.2 miSSE (160°)9.2 mphPartly Cloudy
11:50 PM57.2 °F55.4 °F94 %29.18 in6.2 miSSE (160°)13.8 mph
Hourly data recorded from EGXE, located miles away from Leeming, England







STORIES FROM OUR PARTNERS